Location: Skalnate Pleso
(49.1889°N, 20.2450°E)
Time: 14:35:21
(UTC+01:00)

MSX - Pass Details

Date: 19 November 2019
Orbit: 895 x 906 km, 98.8° (Epoch: 09 December)

Event Time Altitude Azimuth Distance (km) Brightness Sun altitude
Rises 04:00:20 0° 13° (NNE) 3,529 7.1 -28.2°
Reaches altitude 10° 04:02:44 10° 13° (NNE) 2,586 6.4 -27.8°
Maximum altitude 04:08:30 80° 288° (WNW) 921 3.7 -26.8°
Enters shadow 04:09:17 67° 222° (SW) 977 3.7 -26.7°
